EW0250 Weather Reports


time (UTC)temp
C
wind
direction
speed
KPH
gust
KPH
rain 1hr
cm
rain 24hr
cm
rain mn
cm
humidity
%
barometer
mb
20260504081505 7 10 0.0 0.0 0.00 0.00 0.00 56 1010.5
20260504044542 8 72 0.0 1.6 0.00 0.00 0.00 48 1011.3
20260504043049 8 72 0.0 1.6 0.00 0.00 0.00 49 1011.6
20260504041538 7 87 0.0 1.6 0.00 0.00 0.00 51 1011.7
20260504040034 7 92 0.0 0.0 0.00 0.00 0.00 52 1011.5
20260504034539 6 92 0.0 0.0 0.00 0.00 0.00 52 1011.3
20260504033034 6 93 0.0 0.0 0.00 0.00 0.00 52 1011.1
20260504031532 6 92 0.0 0.0 0.00 0.00 0.00 54 1011.1
20260504030031 6 93 0.0 1.6 0.00 0.00 0.00 54 1011.0
20260504024532 6 93 0.0 1.6 0.00 0.00 0.00 51 1010.9
20260504023031 6 93 0.0 1.6 0.00 0.00 0.00 51 1010.9
20260504021535 7 93 0.0 0.0 0.00 0.00 0.00 48 1011.0
20260504020035 7 94 0.0 1.6 0.00 0.00 0.00 45 1011.0
20260504014536 8 94 0.0 0.0 0.00 0.00 0.00 43 1011.1
20260504013030 8 94 0.0 1.6 0.00 0.00 0.00 38 1010.9
20260504011529 9 94 0.0 1.6 0.00 0.00 0.00 37 1010.8
20260504010027 10 105 0.0 3.2 0.00 0.00 0.00 35 1010.6
20260504004527 10 83 3.2 8.0 0.00 0.00 0.00 34 1010.5
20260504003028 10 89 3.2 6.4 0.00 0.00 0.00 33 1010.4
20260504001527 11 136 4.8 11.3 0.00 0.00 0.00 31 1010.1
20260504000026 11 120 3.2 12.9 0.00 0.00 0.00 30 1010.0
20260503234525 11 61 3.2 14.5 0.00 0.00 0.00 29 1009.8
20260503233024 12 139 3.2 11.3 0.00 0.00 0.00 27 1009.6
20260503231524 13 109 3.2 17.7 0.00 0.00 0.00 25 1009.3
20260503230024 13 112 3.2 17.7 0.00 0.00 0.00 23 1009.1
20260503224523 13 89 4.8 14.5 0.00 0.00 0.00 22 1009.0
20260503223023 13 110 4.8 20.9 0.00 0.00 0.00 21 1009.1
20260503221522 13 75 4.8 12.9 0.00 0.00 0.00 21 1009.0
20260503220021 13 61 3.2 19.3 0.00 0.00 0.00 21 1009.1
20260503214536 13 127 6.4 17.7 0.00 0.00 0.00 23 1009.0
20260503213020 13 51 6.4 25.7 0.00 0.00 0.00 22 1008.9
20260503211520 13 75 6.4 20.9 0.00 0.00 0.00 24 1009.0
20260503210018 13 61 6.4 12.9 0.00 0.00 0.00 23 1009.1
20260503204515 13 139 8.0 17.7 0.00 0.00 0.00 23 1009.2
20260503203012 12 36 3.2 14.5 0.00 0.00 0.00 28 1009.3
20260503201512 12 95 4.8 20.9 0.00 0.00 0.00 27 1009.6
20260503200008 12 76 8.0 16.1 0.00 0.00 0.00 27 1009.5
20260503194505 11 72 3.2 20.9 0.00 0.00 0.00 28 1009.9
20260503193005 11 70 6.4 14.5 0.00 0.00 0.00 29 1010.0
20260503191607 11 109 8.0 19.3 0.00 0.00 0.00 31 1010.1
20260503190059 10 28 6.4 14.5 0.00 0.00 0.00 32 1010.3
20260503184618 11 76 6.4 17.7 0.00 0.00 0.00 31 1010.5
20260503183054 10 63 4.8 14.5 0.00 0.00 0.00 34 1010.6
20260503181611 10 91 6.4 14.5 0.00 0.00 0.00 33 1010.6
20260503180111 10 131 8.0 17.7 0.00 0.00 0.00 34 1010.6
20260503174557 10 66 6.4 14.5 0.00 0.00 0.00 35 1010.8
20260503173100 10 167 6.4 19.3 0.00 0.00 0.00 35 1010.8
20260503171551 9 87 8.0 27.4 0.00 0.00 0.00 36 1010.8